Fowler
DateTemperatureDew Point
09/04 - 06:00 PM79.2°55.6°
09/04 - 05:45 PM79.7°55.6°
09/04 - 05:30 PM80.2°56.1°
09/04 - 05:15 PM80.5°56.9°
09/04 - 05:00 PM80.9°57.7°
09/04 - 04:45 PM81.0°58.4°
09/04 - 04:30 PM81.2°57.7°
09/04 - 04:15 PM81.2°57.8°
09/04 - 04:00 PM81.1°58.6°
09/04 - 03:45 PM81.1°57.6°
09/04 - 03:30 PM81.3°58.3°
09/04 - 03:15 PM81.3°59.2°
09/04 - 03:00 PM81.4°59.6°
09/04 - 02:45 PM81.1°59.8°
09/04 - 02:30 PM81.1°59.7°
09/04 - 02:15 PM81.1°60.0°
09/04 - 02:00 PM80.4°59.8°
09/04 - 01:45 PM80.5°59.6°
09/04 - 01:30 PM80.8°61.0°
09/04 - 01:15 PM79.4°60.4°
09/04 - 01:00 PM80.0°61.2°
09/04 - 12:45 PM81.1°61.5°
09/04 - 12:30 PM79.4°60.4°
09/04 - 12:15 PM78.5°60.7°
09/04 - 12:00 PM78.6°60.5°
09/04 - 11:45 AM76.6°61.1°
09/04 - 11:30 AM75.8°60.4°
09/04 - 11:15 AM76.0°61.0°
09/04 - 11:00 AM77.1°61.7°
09/04 - 10:45 AM75.8°61.5°
09/04 - 10:30 AM74.9°60.9°
09/04 - 10:15 AM74.1°61.1°
09/04 - 10:00 AM73.2°61.1°
09/04 - 09:45 AM72.2°60.9°
09/04 - 09:30 AM71.1°61.1°
09/04 - 09:15 AM70.2°60.7°
09/04 - 09:00 AM69.3°60.9°
09/04 - 08:45 AM68.3°60.2°
09/04 - 08:30 AM67.5°59.7°
09/04 - 08:15 AM66.5°60.1°
09/04 - 08:00 AM65.6°60.0°
09/04 - 07:45 AM64.3°59.4°
09/04 - 07:30 AM62.6°59.1°
09/04 - 07:15 AM61.1°58.5°
09/04 - 07:00 AM60.0°57.4°
09/04 - 06:45 AM59.6°56.7°
09/04 - 06:30 AM59.6°56.2°
09/04 - 06:15 AM59.9°56.4°
09/04 - 06:00 AM60.3°56.9°
09/04 - 05:45 AM60.5°57.1°
09/04 - 05:30 AM60.6°57.3°
09/04 - 05:15 AM60.6°57.3°
09/04 - 05:00 AM60.9°57.5°
09/04 - 04:45 AM61.3°57.7°
09/04 - 04:30 AM61.6°58.0°
09/04 - 04:15 AM61.8°58.4°
09/04 - 04:00 AM62.5°57.7°
09/04 - 03:45 AM62.3°57.4°
09/04 - 03:30 AM62.2°57.4°
09/04 - 03:15 AM62.1°57.6°
09/04 - 03:00 AM61.9°57.9°
09/04 - 02:45 AM61.9°58.0°
09/04 - 02:30 AM62.6°58.2°
09/04 - 02:15 AM63.8°58.8°
09/04 - 02:00 AM64.8°57.6°
09/04 - 01:45 AM65.0°57.1°
09/04 - 01:30 AM65.5°57.1°
09/04 - 01:15 AM65.8°57.2°
09/04 - 01:00 AM66.2°57.2°
09/04 - 12:45 AM66.8°57.2°
09/04 - 12:30 AM67.2°57.1°
09/04 - 12:15 AM67.5°57.0°
09/04 - 12:00 AM67.8°56.7°
09/03 - 11:45 PM68.3°56.5°
09/03 - 11:30 PM68.2°56.3°
09/03 - 11:15 PM68.2°55.7°
09/03 - 11:00 PM68.9°55.2°
09/03 - 10:45 PM69.6°54.9°
09/03 - 10:30 PM70.1°54.6°
09/03 - 10:15 PM70.1°53.9°
09/03 - 10:00 PM70.0°53.2°
09/03 - 09:45 PM69.1°51.9°
09/03 - 09:30 PM66.8°51.8°
09/03 - 09:15 PM66.3°54.4°
09/03 - 09:00 PM66.7°55.7°
09/03 - 08:45 PM67.2°55.7°
09/03 - 08:30 PM67.6°55.4°
09/03 - 08:15 PM68.1°55.4°
09/03 - 08:00 PM68.6°55.8°
09/03 - 07:45 PM69.2°56.3°
09/03 - 07:30 PM70.0°57.0°
09/03 - 07:15 PM71.1°57.7°
09/03 - 07:00 PM72.4°59.9°
09/03 - 06:45 PM73.7°62.0°
09/03 - 06:30 PM74.9°61.2°
09/03 - 06:15 PM76.1°61.4°
09/03 - 06:00 PM77.3°62.0°
09/03 - 05:45 PM78.5°62.4°
09/03 - 05:30 PM79.4°60.7°
09/03 - 05:15 PM80.1°57.3°
09/03 - 05:00 PM80.6°57.7°
09/03 - 04:45 PM80.8°57.0°
09/03 - 04:30 PM81.3°57.6°
09/03 - 04:15 PM81.6°56.9°
09/03 - 04:00 PM81.9°56.9°
09/03 - 03:45 PM82.1°57.1°
09/03 - 03:30 PM82.5°56.5°
09/03 - 03:15 PM82.5°57.0°
09/03 - 03:00 PM82.7°57.1°
09/03 - 02:45 PM82.8°57.9°
09/03 - 02:30 PM82.8°57.2°
09/03 - 02:15 PM82.7°57.1°
09/03 - 02:00 PM82.8°57.7°
09/03 - 01:45 PM82.6°58.3°
09/03 - 01:30 PM81.4°57.6°
09/03 - 01:15 PM81.1°57.9°
09/03 - 01:00 PM81.4°58.9°
09/03 - 12:45 PM81.2°59.3°
09/03 - 12:30 PM80.6°58.1°
09/03 - 12:15 PM80.5°58.7°
09/03 - 12:00 PM78.8°58.0°
09/03 - 11:45 AM77.8°57.4°
09/03 - 11:30 AM77.5°58.8°
09/03 - 11:15 AM76.1°57.4°
09/03 - 11:00 AM74.6°56.9°
09/03 - 10:45 AM73.3°56.9°
09/03 - 10:30 AM72.2°56.5°
09/03 - 10:15 AM71.1°55.8°
09/03 - 10:00 AM69.8°55.9°
09/03 - 09:45 AM68.7°56.1°
09/03 - 09:30 AM67.6°55.3°
09/03 - 09:15 AM66.5°55.7°
09/03 - 09:00 AM65.7°54.9°
09/03 - 08:45 AM64.9°55.0°
09/03 - 08:30 AM64.0°54.2°
09/03 - 08:15 AM63.2°53.9°
09/03 - 08:00 AM62.2°53.8°
09/03 - 07:45 AM61.2°53.4°
09/03 - 07:30 AM60.0°53.0°
09/03 - 07:15 AM58.3°52.9°
09/03 - 07:00 AM56.9°52.8°
09/03 - 06:45 AM56.2°52.4°
09/03 - 06:30 AM55.7°51.6°
09/03 - 06:15 AM55.6°51.0°
09/03 - 06:00 AM56.0°50.8°
09/03 - 05:45 AM56.5°50.9°
09/03 - 05:30 AM57.2°51.2°
09/03 - 05:15 AM57.9°51.4°
09/03 - 05:00 AM58.9°51.8°
09/03 - 04:45 AM59.9°52.1°
09/03 - 04:30 AM60.5°52.1°
09/03 - 04:15 AM60.7°52.3°
09/03 - 04:00 AM60.9°52.6°
09/03 - 03:45 AM61.1°52.7°
09/03 - 03:30 AM61.3°52.6°
09/03 - 03:15 AM61.7°52.7°
09/03 - 03:00 AM61.9°52.7°
09/03 - 02:45 AM62.3°52.8°
09/03 - 02:30 AM63.1°52.9°
09/03 - 02:15 AM63.8°52.8°
09/03 - 02:00 AM64.1°52.5°
09/03 - 01:45 AM64.7°52.6°
09/03 - 01:30 AM65.1°52.7°
09/03 - 01:15 AM65.4°52.9°
09/03 - 01:00 AM65.7°53.3°
09/03 - 12:45 AM65.8°53.5°
09/03 - 12:30 AM65.2°53.1°
09/03 - 12:15 AM65.4°53.2°
09/03 - 12:00 AM65.9°53.4°
09/02 - 11:45 PM66.3°53.2°
09/02 - 11:30 PM66.7°53.4°
09/02 - 11:15 PM66.9°53.2°
09/02 - 11:00 PM67.5°53.3°
09/02 - 10:45 PM68.2°53.3°
09/02 - 10:30 PM68.3°52.8°
09/02 - 10:15 PM68.2°51.8°
09/02 - 10:00 PM68.0°51.0°
09/02 - 09:45 PM67.5°50.5°
09/02 - 09:30 PM66.7°50.7°
09/02 - 09:15 PM66.8°51.2°
09/02 - 09:00 PM67.0°51.5°
09/02 - 08:45 PM67.1°51.1°
09/02 - 08:30 PM67.3°52.1°
09/02 - 08:15 PM67.3°51.5°
09/02 - 08:00 PM68.0°53.5°
09/02 - 07:45 PM69.0°53.8°
09/02 - 07:30 PM70.2°53.7°
09/02 - 07:15 PM71.9°54.1°
09/02 - 07:00 PM73.5°53.3°
09/02 - 06:45 PM75.5°53.6°